{"data":{"norad_id":81745,"epoch":"2026-09-18T07:46:23.354688Z","epoch_age_seconds":202680,"freshness":"STALE","line1":"1 81745U          26261.32388142  .00001160  00000+0  37243-3 0  9992","line2":"2 81745  70.9988 134.8763 0004048 144.0581 216.0828 14.41527139670028","mean_motion":14.41527139,"eccentricity":0.0004048,"inclination_deg":70.9988,"raan_deg":134.8763,"arg_perigee_deg":144.0581,"mean_anomaly_deg":216.0828,"bstar":0.00037243,"rev_number":67002,"period_min":99.894061030231,"perigee_km":750.57037726676,"apogee_km":756.34411596882,"semimajor_km":7131.5942466178,"source":"CELESTRAK","updated_at":"2026-09-20T09:00:32.394249Z"}}